Powrót do katalogu

MEASAT 3

AktywnyŁącznośćGEO
NORAD 29648·PAYLOAD·🇲🇾 Malaysia

Wystrzelony Dec 11, 2006 z Baikonur Cosmodrome

Loading…

TLE

ŚwieżeSource: Space-Track

Epoka: Sep 14, 2026, 15:11 UTC

1 29648U 06056A   26257.63325101 -.00000099  00000-0  00000-0 0  9998
2 29648   4.9530  74.9777 0003680 173.5613 147.3755  0.99754268 51273

Śledź MEASAT 3 w czasie rzeczywistym z AllMySat

Download on the App Store